Dewpoint
23 22 21 21 20 20 19 19 18 19 18 17 18 18 19 19 19 18 17 18 16 17 17 16 16 16 15 15 16 15 15 15 14 12 13 13 14 14 14 15 15 14 14
22 20 21 20 20 20 19 18 19 18 19 18 18 18 17 18 18 15 16 16 16 15 15 15 15 14 14 14 14 13 13 14 13 11 11 12 13 14 14 14 13 12 13
20 20 20 20 19 19 18 18 19 18 18 18 18 17 16 16 16 15 16 15 15 15 16 15 15 16 15 15 13 13 13 11 13 14 13 13 14 14 14 14 13 14 13
19 19 19 19 19 19 19 18 18 18 18 18 17 16 16 15 14 14 14 14 15 16 17 17 16 16 15 14 14 14 14 16 16 14 14 13 13 14 14 13 12 14 13
19 19 19 20 19 20 20 19 19 19 17 17 16 16 15 13 11 12 11 14 14 15 16 16 16 16 17 17 15 16 16 15 16 15 14 14 13 14 13 14 14 14 15
19 19 19 20 20 21 21 21 20 19 18 17 16 15 14 9 16 20 13 14 16 14 15 15 15 17 16 18 19 18 18 14 0 5 14 15 15 13 16 13 14 15 9
21 23 22 22 21 22 22 21 20 19 17 16 16 14 13 12 19 22 21 15 16 16 15 14 13 13 16 12 14 17 18 18 19 17 17 16 16 17 15 17 12 11 11
23 24 23 22 22 22 22 21 20 19 18 17 15 15 14 13 19 22 23 18 18 17 16 15 15 14 13 13 12 14 14 14 15 15 17 20 17 17 17 14 12 11 9
22 23 23 22 23 22 22 21 20 20 20 18 17 16 16 15 21 22 22 20 18 17 15 15 15 14 17 19 17 14 16 17 20 22 21 20 20 19 15 11 5 6 4
22 22 23 24 25 23 23 23 23 23 19 17 18 16 15 14 20 23 23 20 14 17 16 14 19 16 18 20 19 16 15 16 17 11 10 10 10 8 11 8 9 5 5
27 25 24 24 26 25 25 24 20 19 18 17 16 15 13 13 14 22 23 20 17 15 15 15 14 18 19 20 21 19 17 18 14 6 5 7 7 7 7 8 7 6 5
27 25 25 25 25 25 23 20 19 19 18 15 12 9 13 13 16 19 22 23 23 15 14 15 15 19 20 21 21 21 22 21 -1 -5 -4 2 4 5 6 7 6 7 7
25 25 24 23 23 22 21 18 16 16 17 14 14 14 13 13 14 20 21 22 23 21 19 18 20 21 22 22 23 25 18 6 -1 -5 -2 3 5 6 7 6 6 7 7
24 22 21 21 19 18 19 17 17 16 15 15 14 14 9 10 12 12 13 16 20 21 21 19 20 22 22 20 15 17 10 8 6 3 3 5 6 5 4 4 4 3 2
21 18 18 18 17 15 13 15 16 10 16 12 13 11 6 7 10 14 13 10 11 13 14 0 2 8 10 12 9 8 9 8 5 3 1 3 4 3 2 3 2 1 -1
16 16 15 15 12 11 11 7 19 18 20 21 19 12 5 14 15 17 19 20 20 20 17 13 10 9 10 11 12 10 7 6 5 3 -0 -0 2 0 -1 -1 -1 -2 -2
15 12 11 11 10 9 7 10 8 12 20 20 20 21 22 16 19 20 21 22 24 25 22 20 16 12 10 11 9 7 4 5 4 3 2 -0 -1 -3 -4 -6 -4 -3 -4
6 10 10 9 9 7 7 7 5 2 3 4 14 17 18 18 18 18 19 19 10 7 1 0 3 6 8 8 6 5 3 2 1 0 -1 -4 -7 -13 -10 -8 -7 -7 -5
6 5 4 4 4 5 4 2 1 1 -0 -3 4 10 8 11 10 10 9 -8 -12 -13 -12 -9 -7 -4 1 -0 -1 -2 -2 -3 -4 -4 -7 -11 -9 -18 -16 -10 -7 -6 -5
2 5 3 3 3 3 3 2 0 -1 1 2 1 1 -2 -9 -12 -16 -17 -20 -21 -20 -20 -21 -15 -14 -10 -12 -11 -8 -8 -10 -7 -7 -9 -10 -12 -14 -12 -11 -9 -8 -8
-0 -1 0 -2 -3 -3 -3 -3 0 1 -0 -6 -10 -7 5 -11 -12 -16 -19 -20 -22 -22 -18 -19 -18 -17 -11 -11 -9 -10 -10 -7 -6 -6 -10 -13 -15 -19 -20 -9 -8 -9 -9
-5 -7 -6 -7 -5 -3 -0 -0 -2 -6 -12 -12 -12 -11 1 -13 -19 -21 -22 -24 -22 -21 -18 -19 -13 -15 -10 -11 -8 -8 -8 -9 -8 -7 -12 -13 -16 -21 -24 -15 -12 -11 -10
-7 -7 -6 -5 -4 -5 -9 -13 -16 -16 -17 -19 -18 -15 -19 -22 -23 -23 -22 -22 -22 -19 -17 -21 -15 -12 -16 -15 -6 -5 -7 -8 -6 -8 -13 -15 -20 -25 -27 -21 -15 -13 -12
-6 -6 -8 -13 -14 -15 -16 -18 -17 -16 -17 -20 -25 -25 -20 -22 -25 -22 -21 -20 -19 -18 -19 -18 -15 -13 -15 -16 -13 -8 -8 -7 -8 -11 -14 -16 -20 -25 -26 -24 -18 -13 -10
-12 -12 -12 -14 -17 -16 -16 -20 -19 -23 -23 -22 -23 -23 -23 -24 -23 -23 -21 -20 -18 -17 -15 -15 -16 -15 -14 -13 -11 -9 -9 -6 -8 -12 -17 -23 -24 -26 -28 -25 -17 -13 -11
-15 -14 -13 -12 -12 -15 -19 -16 -17 -20 -22 -22 -23 -24 -23 -21 -20 -21 -19 -19 -17 -16 -16 -17 -17 -15 -15 -15 -15 -11 -8 -5 -9 -10 -18 -22 -23 -23 -25 -20 -18 -12 -7
Lifted_Index
7 7 6 8 11 14 15 16 16 17 17 17 17 17 17 17 18 18 18 18 18 18 18 18 18 18 18 17 17 16 16 15 14 14 14 13 13 13 12 12 12 12 13
7 7 7 9 12 14 15 16 16 17 17 17 17 17 17 17 18 18 18 18 18 18 18 18 18 17 17 16 16 15 15 14 14 13 13 12 12 12 11 11 12 12 13
8 8 8 10 12 14 15 16 16 16 16 16 16 16 17 17 17 18 18 18 18 18 17 17 16 16 15 15 14 14 13 13 12 12 11 11 10 10 10 11 11 12 13
9 9 10 12 13 14 15 15 16 16 16 16 16 16 17 17 17 18 18 18 17 17 17 16 15 15 14 14 13 13 12 12 11 10 9 9 9 9 9 10 11 12 12
10 10 11 12 14 14 14 15 15 15 15 16 16 16 17 17 17 18 18 17 17 16 16 15 14 13 13 13 12 12 11 11 10 9 8 8 8 8 9 10 11 12 12
10 11 12 13 14 14 14 14 14 15 15 15 16 16 16 17 17 17 17 17 16 15 14 14 13 12 12 11 11 11 10 10 9 8 7 7 7 8 10 10 11 11 11
11 11 12 13 13 14 13 13 13 14 15 15 15 15 16 16 17 17 16 16 15 14 13 12 12 11 11 10 10 10 9 9 9 8 7 7 8 9 10 11 11 11 11
11 11 12 13 13 13 13 13 13 14 14 14 14 15 16 16 16 16 15 15 14 13 12 12 11 11 10 9 9 8 8 8 9 9 9 9 10 11 11 11 11 11 11
11 11 12 13 13 13 13 13 13 13 13 13 14 15 15 15 15 15 14 13 12 12 11 11 10 10 9 9 8 8 7 7 8 9 9 10 10 11 12 12 11 10 10
10 11 12 13 13 13 13 13 13 12 13 13 14 15 15 15 14 14 13 12 11 11 10 10 10 9 9 8 8 7 6 6 7 8 9 10 10 11 11 11 11 10 10
9 10 11 12 13 13 13 12 12 12 13 13 13 13 13 13 13 13 12 11 10 10 10 9 9 9 9 8 8 7 7 7 8 8 8 9 9 10 11 11 11 11 11
9 10 11 12 13 13 13 13 13 13 13 13 13 12 12 12 11 11 11 10 10 9 9 8 8 8 8 8 8 8 8 9 9 8 8 9 9 10 11 11 11 12 12
10 11 12 12 13 13 13 13 13 13 13 13 12 12 11 10 10 10 10 10 10 9 9 8 8 8 8 8 8 9 9 9 9 9 8 9 9 10 11 11 11 11 12
12 13 13 13 14 14 14 14 13 13 13 12 11 11 10 9 9 9 9 9 9 9 9 8 8 8 8 8 9 9 9 9 9 9 9 10 10 10 10 11 11 11 11
14 14 14 14 14 14 14 13 13 12 12 11 10 10 9 9 9 9 9 9 9 9 8 8 8 8 8 8 8 9 9 10 10 10 10 10 10 10 10 10 11 11 11
14 14 14 14 13 13 13 12 12 11 11 10 9 9 9 8 9 9 9 9 9 9 9 8 7 7 8 8 9 9 10 10 10 11 11 11 11 10 10 10 11 12 12
13 13 13 13 12 12 11 11 10 10 9 9 9 9 9 9 9 9 9 9 9 9 9 9 8 8 9 9 10 10 11 11 11 11 11 11 11 11 11 11 11 12 12
12 12 12 11 11 11 10 10 9 8 8 8 8 9 9 9 9 10 10 10 9 10 10 10 10 10 10 11 11 11 12 12 12 12 12 12 12 11 11 11 12 13 13
11 11 11 10 10 9 9 9 8 8 7 7 8 8 9 10 10 10 11 10 10 10 11 11 11 12 12 12 13 13 13 13 13 13 13 12 12 12 12 12 13 13 14
10 10 10 9 9 8 8 8 7 7 7 7 7 8 9 10 10 10 11 11 11 11 12 12 13 13 14 14 14 15 14 14 14 14 13 13 13 12 12 13 13 14 14
9 9 8 8 8 8 8 7 7 7 7 7 8 10 11 11 10 11 11 12 12 12 13 13 14 15 15 16 16 16 16 15 15 14 14 14 13 13 13 14 14 15 15
8 8 8 8 8 8 8 8 8 8 8 8 10 11 12 12 11 11 12 13 13 14 15 15 16 16 17 17 17 17 16 16 15 14 14 14 13 14 14 15 15 15 15
8 8 8 8 8 8 8 8 9 9 9 10 11 11 12 12 12 12 13 14 15 16 16 17 17 17 17 18 18 17 16 16 15 15 14 14 14 14 15 15 15 16 16
8 8 8 8 8 9 9 9 10 10 10 11 11 11 12 12 13 13 14 15 16 16 17 17 17 17 17 17 17 17 16 16 15 15 15 15 15 15 15 15 16 16 16
9 9 9 9 9 9 10 10 10 11 11 11 12 12 13 13 14 14 15 15 16 16 16 17 17 17 17 17 17 17 16 16 16 16 16 15 15 15 16 16 16 16 16
9 9 9 10 10 10 10 10 11 11 11 12 12 13 13 14 14 15 15 16 16 16 16 16 16 17 17 16 16 16 16 16 16 16 16 16 16 16 16 16 16 16 16